Regional Weather Roundup
Issued by NWS

Home | Current Version | Previous Version | Text Only | Print | Product List | Glossary Off
Versions: 1 2 3 4 5 6 7 8 9 10 11 12 13 14 15 16 17 18 19 20 21 22 23 24 25 26 27 28 29 30 31 32 33 34 35 36 37 38 39 40 41 42 43 44 45 46 47 48 49 50

000
ASUS43 KMPX 260601
RWRMN
WEATHER ROUNDUP FOR MINNESOTA
NATIONAL WEATHER SERVICE TWIN CITIES/CHANHASSEN MN
100 AM CDT SAT JUL 26 2014


NOTE: "FAIR" INDICATES FEW OR NO CLOUDS BELOW 12,000 FEET WITH NO
SIGNIFICANT WEATHER AND/OR OBSTRUCTIONS TO VISIBILITY. N/A MEANS
CURRENT SKY AND/OR WEATHER CONDITIONS ARE NOT AVAILABLE.

MNZ060>063-068>070-260700-
   Twin Cities Metro

CITY           SKY/WX    TMP DP  RH WIND       PRES   REMARKS
TWIN CITIES    MOCLDY    75  69  81 S5        29.80S
6HR MIN TEMP:  75; 6HR MAX TEMP:  80;

ST PAUL        MOCLDY    72  70  93 S3        29.80S
CRYSTAL        CLOUDY    77  68  73 SW6       29.79S
BLAINE         CLOUDY    77  72  83 SW3       29.80S
LAKEVILLE      CLEAR     70  68  94 CALM      29.81S
EDEN PRAIRIE   MOCLDY    73  69  87 SW6       29.80S
6HR MIN TEMP:  73; 6HR MAX TEMP:  78;

SOUTH ST PAUL  PTCLDY    74  69  83 CALM      29.80S
LAKE ELMO      MOCLDY    72  70  94 S5        29.82S
$$
MNZ001>005-007-008-013>017-022>024-027-028-260700-
   Northwest Minnesota

CITY           SKY/WX    TMP DP  RH WIND       PRES   REMARKS
BEMIDJI        CLEAR     60  56  85 CALM      29.80F
HALLOCK        CLEAR     63  57  82 SW6       29.75R
ROSEAU         CLEAR     61  55  82 SW7       29.75S
WARROAD        CLEAR     61  57  88 SW8       29.75S
THIEF RVR FALL CLEAR     59  55  88 SW6       29.79R
CROOKSTON      CLEAR     59  55  88 SW6       29.79S
FOSSTON        CLEAR     55  52  88 S3        29.81S
DETROIT LAKES  CLEAR     63  57  82 CALM      29.84S
MOORHEAD       CLEAR     64  59  82 CALM      29.81F
PARK RAPIDS    CLEAR     61  58  90 W3        29.82F
$$
MNZ006-009>011-018-025>026-260700-
   North Central Minnesota

CITY           SKY/WX    TMP DP  RH WIND       PRES   REMARKS
BAUDETTE       CLEAR     60  55  83 SW5       29.75F
FLAG ISLAND    CLEAR     66  55  68 W9        29.71S
INTL FALLS     CLEAR     65  63  93 W6        29.73R
6HR MIN TEMP:  65; 6HR MAX TEMP:  74; 6HR PCP:  0.06;

WASKISH        CLEAR     70  61  73 W9        29.77S
BIG FORK       PTCLDY    68  64  88 W5        29.78S
LONGVILLE      PTCLDY    68  63  83 W5        29.81S
GRAND RAPIDS   MOCLDY    70  66  88 W9        29.79S
CRANE LAKE     CLOUDY    64  63  94 SW5       29.74F
ORR            PTCLDY    66  63  88 SW7       29.73S
COOK           MOCLDY    66  64  94 S5        29.76S
$$
MNZ012-019>021-037-260700-
   Northeast Minnesota

CITY           SKY/WX    TMP DP  RH WIND       PRES   REMARKS
DULUTH         CLOUDY    70  66  87 SW9       29.79S
6HR MIN TEMP:  68; 6HR MAX TEMP:  70;

ELY            CLOUDY    66  64  94 SW7       29.75F
HIBBING        MOCLDY    64  62  93 CALM      29.78S FOG
EVELETH        CLOUDY    68  64  88 SW6       29.78F
DULUTH HARBOR  CLOUDY    66  64  94 CALM      29.77F
TWO HARBORS    MOCLDY    66  63  88 SW5       29.75F
SILVER BAY     MOCLDY    66  66 100 S3        29.75F
GRAND MARAIS     N/A     53  52  96 CALM      29.75F
G MARAIS ARPRT CLOUDY    64  61  88 S3        29.79F
$$
MNZ029>031-032-039>041-046>048-054>057-064-260700-
   West Central Minnesota

CITY           SKY/WX    TMP DP  RH WIND       PRES   REMARKS
FERGUS FALLS   CLEAR     66  54  63 E3        29.83S
MORRIS           N/A     66  66 100 CALM      29.83F FOG
ALEXANDRIA     PTCLDY    70  67  90 NW8       29.86S
ELBOW LAKE     FAIR      67  63  85 CALM      29.84S
WADENA         CLEAR     63  57  82 W3        29.84S
GLENWOOD       CLEAR     68  66  94 W8        29.86R FOG
APPLETON       CLEAR     70  66  88 NW8       29.83S
BENSON         CLEAR     66  64  94 N5        29.83F FOG
ORTONVILLE     CLEAR     70  66  88 W3        29.85R
MADISON        CLEAR     70  66  88 W5        29.85R
WILLMAR        FAIR      70  66  88 NW5       29.84F FOG
$$
MNZ033>034-036-042>043-049>051-058-059-260700-
   Central Minnesota

CITY           SKY/WX    TMP DP  RH WIND       PRES   REMARKS
ST CLOUD       CLEAR     71  68  90 NW3       29.81S FOG
6HR MIN TEMP:  71; 6HR MAX TEMP:  80;

SAUK CENTRE    MOCLDY    68  67  95 NW5       29.84S
PAYNESVILLE    LGT RAIN  63  63 100 SW3       29.84R
AITKIN         PTCLDY    72  64  78 CALM      29.79S
PINE RIVER     PTCLDY    70  64  83 W3        29.85S
BRAINERD       PTCLDY    69  67  93 W6        29.82R
STAPLES        CLEAR     64  63  94 W6        29.83S
LONG PRAIRIE   FAIR      68  66  94 W6        29.84S
LITTLE FALLS   CLOUDY    64  63  94 CALM      29.82S FOG
LITCHFIELD     CLOUDY    73  73 100 NW3       29.83S
BUFFALO        CLOUDY    73  68  84 CALM      29.81S
MAPLE LAKE     CLOUDY    74  71  91 W3        29.82S
$$
MNZ037-044-045-052-053-260700-
   East Central Minnesota

CITY           SKY/WX    TMP DP  RH WIND       PRES   REMARKS
PRINCETON      MOCLDY    73  70  88 CALM      29.80S
MORA           MOCLDY    66  64  94 CALM      29.82S
CAMBRIDGE      CLEAR     73  66  78 CALM      29.78F
RUSH CITY      CLOUDY    71  68  91 CALM      29.80F
MOOSE LAKE     CLOUDY    68  66  94 CALM      29.78R
HINCKLEY       FAIR      70  68  94 CALM      29.80R
CLOQUET        CLOUDY    70  66  88 SW7       29.79F
MCGREGOR       CLOUDY    70  68  94 SW3       29.80S
$$
MNZ071>073-080-081-089-090-097-098-260700-
   Southwest Minnesota

CITY           SKY/WX    TMP DP  RH WIND       PRES   REMARKS
MONTEVIDEO     CLEAR     68  66  94 N5        29.83F
GRANITE FALLS  CLEAR     69  67  94 N5        29.83F
CANBY          CLEAR     66  65  96 W5        29.87R
MARSHALL       CLEAR     70  66  88 NW8       29.83S
REDWOOD FALLS  CLEAR     74  71  91 NW7       29.81S
OLIVIA         CLEAR     70  68  94 NW6       29.82S
PIPESTONE      PTCLDY    72  68  88 N5        29.88R
WINDOM         MOCLDY    73  70  88 CALM      29.84F
WORTHINGTON    PTCLDY    72  70  94 SW5       29.85F
JACKSON        MOCLDY    70  68  94 CALM      29.86R FOG
TRACY          CLEAR     72  70  94 N3        29.83F FOG
SLAYTON        PTCLDY    70  69  98 CALM      29.85F FOG
$$
MNZ065>067-074>077-082>085-091>093-260700-
   South Central Minnesota

CITY           SKY/WX    TMP DP  RH WIND       PRES   REMARKS
MANKATO        MOCLDY    72  66  83 S5        29.82S
NEW ULM        MOCLDY    73  72  94 SW3       29.81S
ST JAMES       PTCLDY    72  68  88 S3        29.83S
FAIRMONT       PTCLDY    72  63  73 CALM      29.84S
GLENCOE        PTCLDY    74  68  83 S5        29.80S
FARIBAULT      CLOUDY    75  66  73 S3        29.83S
OWATONNA       PTCLDY    73  68  83 S7        29.83F
WASECA         MOCLDY    70  64  83 S3        29.84F
ALBERT LEA     MOCLDY    72  70  94 CALM      29.84S
$$
MNZ078>079-086>088-094>096-260700-
   Southeast Minnesota

CITY           SKY/WX    TMP DP  RH WIND       PRES   REMARKS
ROCHESTER      CLOUDY    69  67  93 S8        29.86S FOG
6HR MIN TEMP:  69; 6HR MAX TEMP:  78; 6HR PCP:  0.01;

RED WING       CLOUDY    72  70  94 S7        29.81S
STANTON        MOCLDY    73  68  84 S3        29.80F
DODGE CENTER   MOCLDY    72  70  94 S6        29.85S FOG
WINONA         CLOUDY    70  66  88 SE5       29.85F
AUSTIN         MOCLDY    72  70  94 CALM      29.84S
PRESTON        CLOUDY    67  67 100 S7        29.87S FOG
$$
ABBREVIATIONS USED IN REMARKS
   TC - TEMPERATURES IN CELSIUS
  WCI - WIND CHILL INDEX
   HX - HEAT INDEX
  VSB - VISIBILITY
$$


USA.gov is the U.S. government's official web portal to all federal, state and local government web resources and services.